Wind_Speed
3 3 3 4 4 5 7 9 10 11 12 13 14 14 14 13 12 12 12 13 12 12 13 13 13 13 12 11 10 10 9 8 7 6 6 6 5 3 3 2 2 2 1 1 1 1 2 2 2
2 2 1 2 3 5 7 9 10 10 11 12 13 14 13 13 12 11 11 11 11 11 12 13 13 13 12 11 11 10 8 7 7 6 5 5 5 4 3 2 2 1 1 1 0 1 1 2 2
3 2 1 1 2 4 6 8 9 9 10 11 13 13 12 12 12 11 11 10 10 10 11 12 13 13 13 12 10 10 9 7 6 6 5 5 5 4 3 2 1 2 2 1 0 1 1 2 2
5 4 3 1 1 4 5 6 8 9 10 11 12 12 12 11 11 10 10 10 10 10 11 11 12 13 13 12 11 10 9 8 6 5 4 4 4 4 3 2 1 1 1 1 0 1 1 2 2
6 6 4 2 1 2 4 5 6 8 9 10 11 11 11 10 10 9 9 9 10 10 11 10 11 12 12 11 11 10 9 8 7 5 4 4 5 4 3 2 1 1 1 1 1 1 2 2 2
8 8 6 5 3 2 2 3 5 7 8 10 11 11 10 10 10 9 9 9 9 10 10 10 10 11 11 11 10 10 9 8 7 5 4 4 4 4 3 3 2 1 0 1 1 2 2 2 2
10 9 8 7 6 4 3 3 4 6 8 9 9 10 10 10 10 9 9 8 9 9 9 9 10 11 10 10 11 10 9 8 7 5 4 4 4 4 4 4 2 2 1 1 1 1 1 2 2
11 11 11 10 9 7 4 4 4 6 7 8 9 9 10 10 10 9 9 9 8 8 9 9 10 9 9 9 10 10 9 8 7 6 5 5 4 4 3 3 3 2 2 2 1 1 1 2 2
12 12 12 11 10 8 6 4 5 5 6 8 9 9 10 10 10 9 9 9 8 8 8 8 9 9 8 8 8 8 8 7 6 5 5 5 4 4 3 3 3 3 3 3 2 2 2 3 3
13 13 12 12 12 10 7 6 6 6 7 8 8 9 9 9 9 10 9 9 8 7 7 8 8 8 8 7 7 7 7 6 6 4 4 4 4 4 4 3 3 3 3 3 3 3 3 3 4
15 14 13 14 14 12 9 8 7 7 7 8 8 8 8 8 9 9 9 9 9 8 8 8 7 7 7 7 6 7 6 5 5 4 4 4 4 4 4 3 3 3 4 4 4 4 4 4 4
16 15 15 15 14 13 11 9 8 8 8 8 8 8 8 8 8 8 8 9 9 9 9 8 7 7 7 7 5 6 6 5 4 4 4 4 4 4 4 4 3 4 4 4 5 4 5 5 5
17 17 16 15 15 15 12 11 10 10 9 9 8 8 7 7 8 8 8 8 8 9 9 9 8 7 6 6 6 5 6 5 5 5 4 4 4 5 5 5 5 5 5 5 5 5 5 5 6
18 17 16 15 16 16 14 13 12 10 10 10 9 9 8 9 9 9 8 8 9 10 9 9 8 7 6 6 6 6 6 5 5 5 5 5 6 6 6 6 6 6 6 5 6 6 6 6 7
18 17 16 16 16 16 16 15 13 12 11 10 9 8 8 9 9 9 9 9 10 10 10 10 9 8 7 6 6 7 7 7 7 7 7 7 7 6 6 7 7 7 8 7 7 7 7 7 7
17 16 16 17 17 16 17 16 14 14 13 11 10 9 9 9 10 10 10 10 11 11 12 11 10 9 9 8 8 8 8 8 9 9 9 8 8 8 8 8 9 9 8 8 8 8 8 8 8
17 16 17 18 18 18 18 18 16 15 14 13 12 11 11 10 11 12 12 12 12 13 13 12 12 11 10 9 9 9 9 9 9 10 10 9 9 9 9 9 10 10 9 9 9 8 8 8 8
18 18 18 19 20 20 20 19 18 18 16 14 14 14 13 12 13 13 13 14 14 14 13 13 13 13 11 11 11 11 11 10 11 11 11 11 11 10 10 11 11 10 10 9 9 9 9 9 10
20 20 19 18 21 22 21 20 19 18 18 16 16 16 15 14 14 15 16 15 15 15 14 14 15 15 14 13 12 13 13 13 13 13 13 12 12 12 12 12 11 10 10 10 9 10 9 10 10
20 20 20 20 21 22 22 21 20 19 18 18 18 18 18 17 17 16 17 17 16 16 16 15 16 16 16 15 14 14 14 15 15 14 14 13 13 12 12 11 11 11 10 10 10 10 10 10 10
20 20 20 21 22 22 23 23 22 21 20 21 20 20 20 19 18 18 18 18 18 18 17 17 17 18 18 17 16 15 15 16 15 15 14 13 13 12 12 12 12 12 11 11 11 12 12 12 11
20 20 21 22 23 24 25 25 24 23 23 23 23 22 22 21 21 20 20 20 20 20 19 19 19 19 19 18 18 17 17 18 17 15 14 14 14 14 14 14 14 14 13 13 13 14 14 13 13
19 21 23 23 24 25 26 27 26 25 24 24 25 24 24 23 23 23 23 22 22 22 21 21 21 21 21 20 19 19 19 19 18 17 16 16 15 15 15 15 15 15 15 15 15 16 16 15 15
21 22 24 24 24 25 25 27 26 24 25 25 25 25 25 24 25 24 24 24 24 23 24 23 22 21 22 22 21 21 20 20 19 19 18 17 17 16 17 17 17 17 17 17 17 18 18 16 16
21 23 24 25 25 26 25 27 26 24 25 25 25 25 25 25 26 26 26 26 25 25 25 24 23 23 23 23 22 22 22 21 19 19 20 20 19 18 18 19 19 19 18 18 19 19 19 18 17
21 22 24 25 25 25 26 27 26 25 25 25 26 26 26 27 27 27 28 28 28 27 27 26 26 25 24 23 22 22 22 21 21 21 21 22 21 20 20 20 20 20 20 20 20 21 20 19 19
22 23 24 25 27 27 27 27 27 26 26 26 26 27 27 27 27 28 28 28 29 29 28 28 27 25 24 23 22 22 22 22 22 23 23 23 22 22 22 23 23 22 22 22 22 22 21 21 20
23 23 24 26 27 28 27 27 26 26 26 26 26 27 28 27 28 28 29 30 30 30 30 28 27 26 24 22 22 23 23 23 23 23 23 24 23 23 24 24 24 23 23 23 24 23 22 22 21
23 23 24 26 28 28 29 28 27 27 26 27 27 27 27 28 28 29 29 30 31 31 30 28 27 27 26 25 25 24 24 24 24 24 23 23 24 24 24 25 25 25 24 24 23 23 22 22 22
24 24 25 26 27 28 29 29 27 28 28 28 28 28 29 29 29 30 29 29 29 29 29 29 28 28 27 27 26 24 24 25 26 26 25 25 25 26 26 26 26 26 25 25 24 23 22 22 22
Wind_Direction
132 112 95 71 66 60 55 54 52 46 38 33 32 33 35 32 26 27 26 27 27 27 28 28 30 31 29 30 31 30 32 34 31 33 33 35 38 35 39 40 48 65 71 121 170 188 186 187 182
165 131 100 67 66 53 46 48 51 44 39 32 28 26 28 25 22 20 19 22 24 23 27 29 30 31 31 31 31 30 30 33 31 33 33 35 38 36 33 37 48 46 30 357 220 216 216 215 210
208 206 179 81 59 47 42 43 42 37 34 30 24 21 20 18 16 14 14 17 21 20 24 27 27 30 31 31 28 27 27 28 29 32 30 33 29 25 23 31 14 14 11 355 327 262 234 233 232
227 226 224 195 58 35 38 41 40 34 25 22 18 15 12 14 12 10 9 12 14 18 20 24 26 29 30 30 28 25 23 24 23 29 31 36 28 23 18 16 5 359 9 349 312 261 244 242 246
228 231 235 240 277 15 26 31 29 24 17 14 11 10 6 7 8 8 7 8 6 8 16 24 26 26 28 29 29 26 23 22 17 22 30 31 28 30 27 17 9 29 357 309 255 263 255 250 248
235 238 244 252 255 289 345 6 14 16 13 11 7 8 4 5 5 5 2 0 2 9 15 22 24 24 24 27 26 25 21 19 17 25 33 28 26 26 30 40 54 66 354 244 220 221 256 265 254
237 244 248 253 251 263 299 335 2 4 7 8 4 7 5 4 360 358 355 353 0 9 15 19 20 21 22 24 23 23 18 20 24 31 36 33 30 25 26 33 49 40 12 298 211 195 227 243 248
243 248 251 253 255 262 281 314 350 357 360 3 0 359 358 356 355 354 350 351 357 7 13 14 16 17 18 16 21 25 23 23 25 34 37 36 30 24 20 20 22 33 32 11 324 284 265 240 265
241 245 253 252 251 254 272 301 339 343 351 358 358 354 350 346 346 347 344 346 353 0 6 11 12 13 10 8 14 25 23 22 22 26 30 28 22 14 8 7 9 6 7 1 339 322 310 273 269
241 244 250 253 255 255 266 282 309 326 336 345 349 350 345 340 338 340 340 340 343 349 354 359 2 6 5 2 7 16 17 17 11 14 16 14 13 4 355 351 357 354 347 344 327 288 296 285 276
242 245 251 254 261 261 264 272 289 311 327 337 338 339 335 334 332 331 332 335 336 342 345 347 349 352 355 355 356 360 5 6 1 358 358 358 355 352 350 354 336 334 326 326 315 295 281 283 275
241 245 251 255 260 262 264 269 278 294 308 318 322 327 323 325 325 326 327 328 331 334 335 333 333 333 338 339 341 350 348 347 345 347 344 341 338 334 333 341 323 319 315 315 318 309 288 276 268
243 246 249 251 256 260 264 269 276 283 298 304 313 319 324 327 322 327 330 325 323 326 326 323 321 319 320 324 331 341 335 332 329 331 327 320 320 318 314 317 316 315 313 312 308 304 293 285 285
245 246 246 248 252 256 260 265 271 278 290 295 301 309 317 324 323 320 324 323 321 320 319 317 315 316 313 317 324 329 328 320 308 313 314 307 304 305 306 305 308 309 306 312 311 302 301 294 289
244 244 244 246 250 253 256 259 264 272 282 286 294 302 307 319 317 311 312 315 316 317 315 312 310 313 311 310 312 314 313 320 324 318 311 303 297 298 298 298 299 303 302 300 302 302 300 297 292
243 240 240 244 248 252 255 258 260 265 275 279 286 293 298 306 313 307 303 306 310 314 315 315 306 305 303 303 300 306 307 312 315 313 308 301 293 291 291 291 293 294 297 296 297 297 296 293 290
243 240 241 244 248 249 254 256 256 261 268 272 277 282 289 293 303 302 299 303 304 305 307 309 304 298 297 295 292 293 298 299 306 307 307 300 291 287 287 290 290 290 292 290 292 296 294 292 289
243 241 241 242 246 249 253 254 256 259 262 267 272 278 285 291 298 300 296 299 298 295 296 298 298 295 294 291 289 290 294 293 297 298 297 293 287 283 284 287 290 289 288 290 290 292 294 291 288
242 242 242 241 247 250 252 254 259 262 265 267 269 274 280 284 289 293 293 293 293 291 290 290 292 291 290 289 288 287 289 292 292 291 290 288 284 282 282 285 287 290 288 289 289 291 295 294 290
242 242 241 243 247 250 252 255 259 262 266 267 268 270 274 279 284 288 292 291 287 285 284 286 287 287 287 285 281 282 284 287 285 282 283 281 282 283 285 283 285 288 288 286 285 288 292 297 294
242 241 242 244 249 253 254 255 258 262 266 268 269 269 271 276 281 282 286 287 285 284 283 282 283 284 284 285 280 278 282 283 284 284 284 282 280 281 284 282 282 285 285 284 282 284 284 287 289
243 243 244 246 249 252 255 257 258 261 265 269 270 270 271 273 277 280 282 283 282 281 279 279 280 279 279 280 279 279 281 284 281 279 280 277 273 275 281 281 282 283 282 282 282 284 285 284 284
245 246 247 249 251 253 257 261 263 264 265 268 271 271 271 271 274 277 278 279 279 278 277 279 279 277 276 276 276 277 277 281 278 276 278 273 269 272 275 277 280 282 282 281 280 283 284 283 283
246 249 250 252 256 258 262 265 267 268 269 268 270 271 273 272 274 276 276 277 278 277 278 279 279 276 276 274 276 277 277 280 277 274 272 272 271 271 271 274 277 279 281 280 281 283 283 281 281
249 250 253 255 257 261 264 267 271 273 272 271 272 272 273 274 276 276 275 276 277 277 276 275 277 276 275 276 277 276 273 277 276 275 274 272 272 273 274 274 276 278 278 279 281 283 282 279 280
252 252 255 259 259 261 264 268 273 275 275 274 274 272 273 274 275 276 275 275 275 276 276 275 276 278 279 278 275 274 272 275 275 273 274 274 273 274 275 275 276 277 277 278 279 280 280 279 278
252 252 257 261 262 263 266 269 273 275 275 276 275 274 274 275 276 275 275 275 275 275 275 276 274 278 279 281 279 276 274 275 277 275 273 272 272 273 274 274 274 274 275 275 278 279 279 278 278
254 255 257 261 265 267 269 272 276 278 278 278 277 276 275 275 274 273 273 273 273 274 273 274 275 278 278 278 278 275 274 275 276 275 273 272 271 272 273 273 274 274 273 274 278 277 275 275 275
256 257 260 264 267 271 273 276 279 281 281 281 279 279 279 277 275 274 274 273 272 272 274 275 274 272 273 275 276 276 276 275 275 273 272 272 272 273 273 273 272 271 272 274 274 274 273 272 272
261 261 264 267 269 271 274 277 280 280 281 282 282 281 280 281 279 277 277 277 276 274 274 274 272 269 269 270 273 275 275 272 272 272 272 272 272 272 271 272 272 271 273 274 274 273 272 270 271
Height
5899 5899 5900 5900 5900 5899 5898 5898 5897 5896 5896 5895 5894 5893 5893 5893 5893 5894 5891 5888 5887 5886 5884 5882 5880 5879 5877 5876 5875 5875 5874 5874 5874 5873 5873 5873 5873 5873 5873 5874 5874 5875 5875 5876 5876 5877 5877 5878 5879
5899 5900 5901 5901 5900 5899 5899 5899 5898 5898 5897 5896 5895 5894 5894 5893 5893 5892 5891 5889 5888 5887 5885 5883 5881 5879 5878 5877 5876 5875 5874 5874 5874 5873 5873 5873 5873 5873 5874 5874 5874 5875 5875 5876 5876 5877 5877 5878 5878
5900 5901 5902 5902 5901 5900 5900 5899 5899 5898 5898 5897 5896 5895 5895 5894 5893 5892 5892 5890 5889 5888 5886 5884 5882 5880 5879 5878 5877 5875 5875 5874 5873 5873 5873 5873 5873 5873 5874 5874 5874 5875 5875 5875 5876 5877 5877 5878 5878
5900 5901 5902 5902 5901 5901 5901 5900 5899 5899 5898 5898 5897 5896 5895 5895 5894 5893 5892 5891 5890 5888 5886 5885 5883 5881 5879 5878 5877 5876 5875 5874 5873 5873 5873 5873 5873 5873 5874 5874 5874 5874 5875 5875 5876 5876 5877 5878 5878
5900 5901 5902 5902 5901 5901 5901 5900 5900 5899 5898 5898 5897 5896 5896 5895 5894 5893 5892 5891 5890 5888 5886 5885 5883 5882 5880 5879 5878 5876 5875 5874 5873 5873 5873 5873 5873 5873 5874 5874 5874 5874 5875 5875 5876 5876 5876 5877 5878
5899 5900 5901 5901 5901 5901 5901 5900 5900 5899 5899 5898 5897 5897 5896 5895 5895 5894 5893 5892 5890 5888 5887 5885 5884 5882 5881 5880 5879 5877 5876 5875 5873 5872 5873 5873 5873 5874 5874 5874 5874 5874 5875 5875 5875 5876 5876 5877 5877
5899 5899 5900 5900 5901 5901 5901 5900 5899 5899 5899 5898 5898 5897 5896 5896 5895 5894 5893 5892 5890 5889 5887 5886 5885 5883 5882 5881 5879 5878 5877 5876 5874 5873 5873 5873 5874 5874 5874 5874 5874 5875 5875 5875 5875 5875 5876 5876 5877
5897 5899 5898 5899 5900 5900 5900 5899 5899 5899 5899 5898 5898 5897 5896 5896 5895 5894 5893 5892 5891 5889 5888 5887 5885 5884 5883 5882 5880 5879 5878 5877 5876 5874 5874 5874 5874 5874 5874 5874 5874 5875 5875 5875 5875 5876 5876 5876 5877
5896 5898 5897 5898 5898 5899 5899 5899 5898 5899 5899 5898 5898 5897 5897 5896 5895 5894 5893 5892 5891 5890 5888 5887 5886 5885 5883 5882 5881 5880 5878 5878 5877 5876 5876 5875 5875 5875 5875 5874 5875 5875 5875 5875 5875 5876 5876 5876 5876
5895 5896 5896 5897 5897 5898 5898 5898 5898 5898 5898 5898 5898 5897 5896 5896 5895 5894 5893 5892 5891 5890 5888 5887 5886 5885 5884 5883 5882 5880 5879 5878 5878 5877 5877 5876 5875 5875 5875 5875 5875 5874 5874 5875 5875 5875 5875 5875 5875
5893 5894 5895 5895 5895 5896 5897 5897 5898 5898 5897 5897 5897 5896 5896 5895 5894 5894 5893 5892 5890 5889 5888 5887 5886 5885 5884 5883 5882 5881 5880 5879 5878 5877 5877 5876 5876 5875 5875 5875 5874 5874 5874 5874 5874 5874 5874 5874 5875
5891 5892 5893 5893 5893 5894 5895 5896 5896 5896 5897 5896 5896 5896 5895 5895 5894 5893 5892 5891 5890 5889 5888 5887 5886 5885 5884 5883 5882 5881 5880 5879 5878 5877 5877 5876 5876 5875 5875 5875 5874 5874 5874 5873 5873 5874 5874 5873 5873
5888 5889 5890 5891 5892 5892 5893 5894 5895 5895 5895 5895 5895 5895 5894 5894 5893 5892 5891 5890 5889 5888 5887 5886 5885 5884 5883 5883 5881 5880 5880 5879 5878 5877 5876 5876 5875 5875 5874 5874 5874 5873 5873 5873 5873 5873 5873 5873 5872
5885 5887 5888 5889 5889 5890 5891 5892 5893 5893 5893 5893 5893 5893 5893 5893 5892 5891 5890 5889 5888 5888 5887 5885 5885 5884 5883 5882 5881 5880 5879 5877 5877 5876 5875 5875 5875 5874 5874 5873 5873 5873 5872 5872 5872 5872 5872 5871 5871
5882 5884 5885 5886 5886 5887 5888 5890 5891 5891 5891 5891 5891 5891 5891 5891 5890 5889 5889 5888 5887 5886 5885 5884 5884 5883 5882 5881 5880 5879 5877 5876 5876 5875 5874 5874 5873 5873 5873 5872 5872 5872 5871 5871 5871 5870 5870 5870 5869
5880 5882 5883 5883 5884 5884 5887 5887 5888 5888 5889 5889 5889 5889 5889 5889 5888 5887 5887 5886 5885 5885 5884 5883 5882 5881 5880 5879 5878 5878 5876 5875 5874 5874 5873 5872 5872 5871 5871 5871 5870 5870 5869 5869 5869 5869 5868 5868 5867
5877 5878 5879 5881 5881 5881 5882 5884 5885 5885 5886 5887 5887 5887 5887 5886 5886 5885 5884 5884 5883 5882 5882 5881 5880 5879 5878 5878 5877 5876 5874 5874 5873 5872 5871 5870 5870 5869 5869 5869 5868 5868 5867 5867 5867 5867 5866 5866 5865
5873 5874 5876 5877 5877 5878 5879 5880 5881 5882 5883 5883 5884 5884 5884 5883 5883 5882 5882 5881 5880 5880 5879 5878 5878 5877 5876 5875 5875 5874 5872 5872 5871 5870 5869 5868 5868 5867 5867 5866 5866 5866 5865 5865 5864 5864 5864 5863 5863
5869 5870 5872 5874 5873 5874 5875 5876 5878 5878 5879 5880 5880 5880 5880 5880 5879 5879 5878 5877 5877 5876 5876 5875 5875 5874 5873 5873 5872 5871 5870 5870 5869 5868 5867 5866 5865 5864 5864 5864 5863 5863 5863 5863 5862 5862 5861 5861 5860
5865 5867 5869 5870 5870 5870 5871 5872 5873 5874 5875 5876 5876 5876 5876 5876 5876 5875 5874 5874 5873 5873 5872 5872 5872 5871 5870 5869 5869 5868 5867 5867 5865 5864 5864 5863 5862 5861 5861 5861 5861 5861 5861 5860 5860 5859 5859 5858 5858
5862 5864 5865 5866 5866 5866 5867 5869 5870 5871 5871 5871 5871 5871 5871 5871 5871 5871 5870 5870 5869 5869 5868 5868 5867 5867 5866 5866 5864 5864 5863 5863 5862 5861 5860 5859 5859 5858 5858 5858 5858 5858 5858 5858 5857 5857 5856 5855 5855
5858 5860 5860 5861 5862 5862 5863 5863 5865 5866 5866 5866 5866 5866 5867 5867 5867 5866 5866 5865 5864 5864 5864 5863 5863 5862 5862 5861 5860 5859 5859 5858 5858 5857 5856 5856 5855 5855 5855 5855 5855 5855 5854 5854 5854 5853 5853 5852 5851
5854 5855 5856 5856 5857 5858 5859 5858 5860 5861 5861 5862 5861 5861 5861 5862 5862 5861 5861 5860 5859 5859 5858 5858 5858 5857 5857 5856 5855 5855 5854 5853 5853 5852 5852 5852 5851 5851 5851 5851 5851 5851 5850 5850 5850 5850 5849 5849 5848
5850 5850 5851 5852 5852 5853 5854 5854 5854 5855 5856 5856 5856 5856 5856 5856 5856 5856 5855 5855 5854 5853 5853 5852 5852 5851 5850 5850 5849 5849 5848 5848 5847 5847 5847 5847 5847 5847 5847 5846 5846 5846 5846 5846 5846 5845 5845 5844 5844
5845 5846 5847 5847 5847 5848 5849 5848 5850 5850 5850 5851 5851 5850 5850 5850 5850 5849 5849 5848 5848 5847 5846 5846 5845 5845 5844 5843 5843 5842 5842 5842 5841 5842 5842 5842 5842 5842 5842 5842 5842 5841 5841 5841 5841 5841 5840 5840 5839
5840 5842 5843 5843 5843 5844 5844 5843 5845 5845 5845 5845 5845 5844 5844 5844 5843 5843 5842 5842 5841 5840 5840 5839 5838 5838 5838 5836 5835 5835 5836 5836 5836 5836 5836 5836 5836 5837 5836 5836 5836 5836 5836 5836 5836 5835 5835 5835 5835
5836 5836 5838 5838 5837 5838 5838 5839 5839 5839 5839 5838 5838 5838 5837 5837 5836 5836 5835 5834 5833 5833 5832 5832 5832 5831 5830 5829 5829 5829 5830 5830 5830 5830 5830 5830 5830 5830 5831 5830 5830 5830 5830 5830 5830 5830 5829 5829 5829
5831 5832 5832 5832 5831 5831 5832 5832 5833 5833 5833 5832 5831 5831 5830 5830 5829 5828 5828 5827 5826 5826 5825 5824 5825 5824 5824 5824 5823 5823 5823 5823 5823 5823 5823 5824 5824 5824 5824 5824 5823 5823 5824 5824 5824 5824 5823 5823 5823
5826 5827 5826 5826 5826 5826 5825 5828 5827 5827 5826 5825 5825 5824 5823 5822 5822 5820 5820 5819 5818 5818 5817 5817 5817 5817 5817 5817 5817 5817 5817 5817 5817 5817 5817 5817 5817 5817 5817 5817 5817 5817 5817 5817 5817 5818 5817 5817 5817
5820 5820 5821 5821 5820 5820 5819 5823 5820 5819 5819 5818 5818 5817 5816 5814 5813 5812 5811 5811 5810 5810 5809 5809 5809 5810 5810 5810 5810 5809 5810 5809 5809 5809 5809 5810 5810 5810 5810 5810 5810 5810 5810 5810 5811 5811 5811 5811 5811